Location: Flotzheim
(48.8375°N, 10.8136°E)
Time: 03:15:57
(UTC+00:00)

Cosmos 2082 Rocket - Pass Details

Date: 23 January 2021
Orbit: 832 x 855 km, 71.0° (Epoch: 26 February)

Event Time Altitude Azimuth Distance (km) Brightness Sun altitude
Rises 18:49:20 0° 332° (NNW) 3,437 5.8 -27.5°
Reaches altitude 10° 18:51:49 10° 335° (NNW) 2,497 4.9 -27.9°
Enters shadow 18:56:16 53° 357° (N) 1,045 2.6 -28.7°
